User: anonymous   Login
Location: Cincinnati Observatory Center
(39.1389°N, 84.4225°W)
Time: 17:25:42
(UTC-04:00)
Language:

Hubble Space Telescope - Orbit

View from above orbital plane
View from above orbital plane
View from above satellite
View from above satellite

Ground track
Ground track

The orbit data is extracted from the following two-line orbital elements,

1 20580U 90037B   17228.61536545 +.00000492 +00000-0 +19313-4 0  9995
2 20580 028.4704 328.2118 0002931 101.4568 026.8176 15.08816036299331
Epoch (UTC): 16 August 2017 14:46:07
Eccentricity: 0.0002931
inclination: 28.4704°
perigee height: 538 km
apogee height: 542 km
right ascension of ascending node: 328.2118°
argument of perigee: 101.4568°
revolutions per day: 15.08816036
mean anomaly at epoch: 26.8176°
orbit number at epoch: 29933

The dashed part of the orbit path shows where the satellite is in the earth's shadow,  

DLR